Location: Klinovec
(50.3970°N, 12.9600°E)
Time: 13:48:27
(UTC+01:00)

N. Korean satellite - Pass Details

Date: 19 November 2019
Orbit: 455 x 507 km, 97.2° (Epoch: 12 December)

Event Time Altitude Azimuth Distance (km) Brightness Sun altitude
Rises 05:32:08 0° 20° (NNE) 2,623 10.4 -18.2°
Reaches altitude 10° 05:34:24 10° 31° (NNE) 1,729 9.6 -17.8°
Maximum altitude 05:37:47 32° 96° (E) 883 8.6 -17.3°
Drops below altitude 10° 05:41:06 10° 161° (SSE) 1,698 9.7 -16.7°
Sets 05:43:19 0° 171° (S) 2,568 10.5 -16.4°
